Location: Cluj-Napoca
(46.7712°N, 23.6236°E)
Time: 23:15:06
(UTC+03:00)

Envisat - Visible Passes

Search period start: 21 September 2021 00:00
Search period end: 01 October 2021 00:00
Orbit: 764 x 766 km, 98.2° (Epoch: 21 September)

Date Brightness Start Highest point End Pass type
(mag) Time Alt. Az. Time Alt. Az. Time Alt. Az.
21 Sep 4.5 06:07:33 10° NNE 06:12:20 40° E 06:17:06 10° SSE visible
22 Sep 5.7 05:31:31 10° NE 05:35:10 20° E 05:38:49 10° SE visible
23 Sep 3.5 06:32:41 10° NNE 06:37:46 68° ESE 06:42:49 10° S visible
24 Sep 4.9 05:56:12 10° NNE 06:00:45 32° E 06:05:17 10° SSE visible
25 Sep 5.9 05:20:31 10° NE 05:23:32 16° E 05:26:33 10° SE visible
26 Sep 3.9 06:21:14 10° NNE 06:26:14 54° E 06:31:12 10° S visible
27 Sep 5.3 05:44:55 10° NE 05:49:09 26° E 05:53:22 10° SSE visible
28 Sep 6.1 05:09:48 10° ENE 05:11:52 12° E 05:13:55 10° ESE visible
28 Sep 3.1 06:46:29 10° NNE 06:51:37 90° SE 06:56:42 10° SSW visible
29 Sep 4.3 06:09:49 10° NNE 06:14:40 43° E 06:19:29 10° S visible
30 Sep 5.6 05:33:43 10° NE 05:37:32 21° E 05:41:20 10° SE visible
